Regional Weather Roundup
Issued by NWS Charleston, SC

Current Version | Previous Version | Text Only | Print | Product List | Glossary Off
Versions: 1 2 3 4 5 6 7 8 9 10 11 12 13 14 15 16 17 18 19 20 21 22 23 24 25 26 27 28 29 30 31 32 33 34 35 36 37 38 39 40 41 42 43 44 45 46 47 48 49 50

000
ASUS42 KCHS 191912
RWRCHS

REGIONAL WEATHER ROUNDUP
NATIONAL WEATHER SERVICE CHARLESTON SC
300 PM EDT THU OCT 19 2017

NOTE: "FAIR" INDICATES FEW OR NO CLOUDS BELOW 12,000 FEET WITH NO
SIGNIFICANT WEATHER AND/OR OBSTRUCTIONS TO VISIBILITY.

NOT ALL STATIONS ARE QUALITY CONTROLLED. USE DATA WITH CAUTION...
ESPECIALLY DEWPOINT OBSERVATIONS.

SCZ027-030-031-034>040-042>050-192000-
...SOUTHEAST SOUTH CAROLINA...

CITY           SKY/WX    TMP DP  RH WIND       PRES   REMARKS
N CHARLESTON   FAIR      80  58  46 NE8       30.19F
WATERFRONT PRK   N/A     78  60  53 N6        30.04F
JOHNS ISLAND   FAIR      79  63  57 VRB7      30.19F
PINOPOLIS        N/A     73  63  68 N7        30.14F
MONCKS CORNER  FAIR      75  55  50 N6        30.20F HAZE
SUMMERVILLE    FAIR      77  55  47 NE7       30.21F
BEAUFORT MCAS  FAIR      81  59  47 N8        30.20F
BEAUFORT ARPT  FAIR      77  59  53 NE7       30.19F
HILTON HEAD IS SUNNY     77  59  53 NE9       30.20F
WALTERBORO     FAIR      77  55  47 N6        30.21F
ALLENDALE        N/A     77  54  44 VRB5        N/A

...SOUTHERN MIDLANDS AND PEE DEE...

CITY           SKY/WX    TMP DP  RH WIND       PRES   REMARKS
GEORGETOWN     FAIR      75  59  57 E7        30.21F
KINGSTREE      FAIR      75  52  43 CALM      30.21F
ORANGEBURG     FAIR      77  54  44 N6        30.22F
BARNWELL         N/A     79  55  44 CALM      30.22F
AIKEN          FAIR      73  50  43 CALM      30.26F
MANNING        HAZE      75  28  17 MISG      30.21F VSB<1/4
COLUMBIA       FAIR      76  54  46 CALM      30.22F
SUMTER         FAIR      75  53  46 CALM      30.20F
FLORENCE       FAIR      75  55  49 NW3       30.22F
MYRTLE BEACH   FAIR      75  60  59 SE7       30.20F
N MYRTLE BEACH PTSUNNY   78  60  53 SE5       30.19F

$$

GAZ063-065-086>088-099>101-113>116-118-119-134>141-150-192000-
...SOUTHEAST GEORGIA...

CITY           SKY/WX    TMP DP  RH WIND       PRES   REMARKS
SAVANNAH ARPT  FAIR      81  59  47 E8        30.19F
HUNTER AAF     FAIR      79  60  51 NE9       30.16F
FORT STEWART   FAIR      80  59  47 N7        30.17F
STATESBORO     FAIR      80  51  36 NE8       30.20F
SYLVANIA       FAIR      80  60  49 N3        30.21F
CLAXTON        FAIR      82  60  47 N8        30.20F

...CSRA...CENTRAL AND FAR SOUTHEAST GEORGIA...

CITY           SKY/WX    TMP DP  RH WIND       PRES   REMARKS
THOMSON        FAIR      73  49  42 SW3       30.28F
AUGUSTA-BUSH   FAIR      78  52  40 NE5       30.22F
AUGUSTA-DANIEL FAIR      78  49  35 VRB5      30.23F
SWAINSBORO     FAIR      79  50  36 N8        30.22F
VIDALIA        FAIR      79  55  44 NE7       30.21F
EASTMAN        FAIR      81  26  13 NE7       30.23F
HAZLEHURST     FAIR      81  33  18 N7        30.19F
ALMA           FAIR      81  58  45 NE7       30.18F
WAYCROSS       FAIR      81  56  42 NE5G16    30.18F
JESUP          NOT AVBL
BAXLEY         FAIR      77  55  47 NE8       30.18F
BRUNSWICK      FAIR      79  59  50 NE17G23   30.18F
SAINT SIMONS   FAIR      78  67  68 NE15G24   30.17F

$$

SCZ027-028-034-036>038-045-046-048>050-GAZ119-141-192000-
...LAKE AND SUPPLEMENTAL COASTAL OBSERVATIONS...

STATION/POSITION TIME  TEMP    WIND        PRES    WAVE   SWELL
                       AIR SEA DIR/SP/G            HT/PER HT/PER/DIR
                 (UTC) (F)     (DEG/KT/KT) (MB)    (FT/S) (FT/S/D)
WINYAH BAY       NOT AVBL
LAKE MURRAY      1820   71     210/  3/  4 1023.4F
ACE BASIN NERRS  1745   79      20/  3     1024.0
FORT PULASKI     1848   74 74   80/ 12/ 16 1022.7F
SAPELO ISLAND    1800   78      30/ 14     1023.0

$$

ANZ835-935-AMZ111-154-330-350-352-354-370-450-454-472-192000-
...C-MAN AND BUOY OBSERVATIONS...

STATION/POSITION TIME  TEMP    WIND        PRES    WAVE   SWELL
                       AIR SEA DIR/SP/G            HT/PER HT/PER/DIR
                 (UTC) (F)     (DEG/KT/KT) (MB)    (FT/S) (FT/S/D)
BUOY 41004       1850   75      40/ 16/ 19 1021.4F   6/ 9   3/120/ 9
BUOY 41008       1750   73 77   40/ 17/ 21 1022.0    6/ 9   3/110/ 9
FOLLY BEACH CMAN 1800   73      70/ 13/ 14 1023.7F
CAPERS NEARSHORE 1808   71 73   50/ 14/ 17 1022.7F
FRIPP NEARSHORE  1808   74      50/ 12/ 16   N/A


STATION/POSITION TIME  TEMP    WIND        PRES    WAVE   SWELL
                       AIR SEA DIR/SP/G            HT/PER HT/PER/DIR
                 (UTC) (F)     (DEG/KT/KT) (MB)    (FT/S) (FT/S/D)
5E ST. MARYS GA  1830      77                N/A     6/ 6   2/100/11
FRYING PAN BUOY  1850   75 76   40/ 16/ 17 1021.5F   6/ 8   3/120/ 8
BUOY 41025       1850   75 81   30/ 10/ 12 1021.9F   5/ 9   5/120/ 9
CAPE LOOKOUT NC  1800   73      30/ 10/ 11 1022.5F
BUOY 41002       1750   77 80   40/ 16/ 19 1018.9    6/ 7   3/ 90/ 8
BUOY 41010       NOT AVBL
ST AUGUSTINE FL  1900   77 79   20/ 23/ 24 1020.1F


$$




USA.gov is the U.S. government's official web portal to all federal, state and local government web resources and services.